Location: ????????
(54.9045°N, 39.1041°E)
Time: 17:23:43
(UTC+00:00)

Meteor 1-28 Rocket - Visible Passes

Search period start: 12 July 2024 00:00
Search period end: 22 July 2024 00:00
Orbit: 474 x 487 km, 97.5° (Epoch: 11 July)

Date Brightness Start Highest point End Pass type
(mag) Time Alt. Az. Time Alt. Az. Time Alt. Az.
12 Jul 4.4 23:15:04 10° SE 23:18:26 39° ENE 23:21:51 10° N visible
13 Jul 5.4 22:50:04 10° ESE 22:53:00 23° ENE 22:55:55 10° N visible
14 Jul 5.9 22:25:32 10° E 22:27:36 15° ENE 22:29:41 10° NNE visible
14 Jul 3.0 23:56:53 10° S 00:00:29 76° WSW 00:04:07 10° NNW visible
15 Jul 3.7 23:31:20 10° SSE 23:34:52 58° ENE 23:38:26 10° N visible
16 Jul 4.8 23:06:05 10° SE 23:09:19 32° ENE 23:12:34 10° N visible
17 Jul 5.7 22:41:10 10° ESE 22:43:50 20° ENE 22:46:30 10° NNE visible
18 Jul 3.3 00:13:23 10° S 00:16:54 51° W 00:20:27 10° NNW visible
18 Jul 6.1 22:16:51 10° E 22:18:25 12° NE 22:20:00 10° NNE visible
18 Jul 3.1 23:47:35 10° SSE 23:51:11 85° ENE 23:54:50 10° NNW visible
19 Jul 4.1 23:22:05 10° SE 23:25:32 46° ENE 23:29:01 10° N visible
20 Jul 5.2 22:56:54 10° ESE 22:59:57 27° ENE 23:03:03 10° N visible
21 Jul 5.9 22:32:07 10° E 22:34:27 17° ENE 22:36:48 10° NNE visible
